Tracking 28790 objects as of 19-Apr-2024
HD Live streaming from Space Station
objects crossing your sky now

METEOR 2-8 DEB

Track METEOR 2-8 DEB now!
10-day predictions


NORAD ID: 36325
Int'l Code: 1982-025K
Perigee: 838.2 km
Apogee: 876.6 km
Inclination: 82.5 °
Period: 101.9 minutes
Semi major axis: 7228 km
RCS: 0.0093 m2 (small)
Launch date: March 25, 1982
Source: Commonwealth of Independent States (former USSR) (CIS)
Launch site: PLESETSK MISSILE AND SPACE COMPLEX (PKMTR)

Note: This is SATELLITE DEBRIS
Your satellite tracking list
Your tracking list is empty




NASA's NSSDC Master Catalog

Two Line Element Set (TLE):
1 36325U 82025K   24101.53821428  .00001633  00000-0  87035-3 0  9996
2 36325  82.5213 180.0881 0026521 146.8776 213.4067 14.12664466539249
Source of the keplerian elements: AFSPC